Buckeye, AZ

10:09 PM MST on June 22, 2017 (GMT -0700)
Buckeye Municipal

Weather History for KBXK - November, 2013

Change the Weather History Date:

Friday, November 22, 2013

  Actual Average (KGYR) Record (KGYR)
Temperature  
Mean Temperature 54 °F -  
Max Temperature 57 °F 70 °F 82 °F (2002)
Min Temperature 51 °F 45 °F 41 °F (2014)
Degree Days  
Heating Degree Days 11    
Growing Degree Days 4 (Base 50)    
Moisture  
Dew Point 54 °F    
Average Humidity 100    
Maximum Humidity 100    
Minimum Humidity 100    
Precipitation  
Precipitation 1.35 in - - ()
Sea Level Pressure  
Sea Level Pressure 29.91 in    
Wind  
Wind Speed 9 mph (ESE)    
Max Wind Speed 22 mph    
Max Gust Speed 29 mph    
Visibility 6 miles    
Events      
Averages and records for this station are not official NWS values.
T = Trace of Precipitation, MM = Missing Value Source: NWS Daily Summary

Daily Weather History Graph

Daily Weather History Graph

Search for Another Location

Airport or City:

Trip Planner

Search our weather history database for the weather conditions in past years. The results will help you decide how hot, cold, wet, or windy it might be!

Date:

Astronomy

Nov. 22, 2013 Rise Set
Actual Time 7:08 AM MST 5:24 PM MST
Civil Twilight 6:42 AM MST 5:51 PM MST
Nautical Twilight 6:11 AM MST 6:21 PM MST
Astronomical Twilight 5:42 AM MST 6:51 PM MST
Moon 9:56 PM MST (11/22) 10:57 AM MST (11/22)
Length of Visible Light 11h 09m
Length of Day
10h 15m
Waning Gibbous, 77% of the Moon is Illuminated
Nov 22
Waning Gibbous
Nov 25
Last Quarter
Dec 2
New
Dec 9
First Quarter
Dec 17
Full

Hourly Weather History & Observations

Time (MST) Temp. Dew Point Humidity Pressure Visibility Wind Dir Wind Speed Gust Speed Precip Events Conditions
12:15 AM 57.2 °F 57.2 °F 100% 29.90 in 10.0 mi NW 9.2 mph - N/A   Overcast
12:35 AM 57.2 °F 57.2 °F 100% 29.89 in 10.0 mi NNW 11.5 mph - N/A   Overcast
12:55 AM 57.2 °F 57.2 °F 100% 29.88 in 10.0 mi NNW 12.7 mph - N/A   Overcast
1:15 AM 57.2 °F 57.2 °F 100% 29.86 in 10.0 mi North 11.5 mph - N/A   Overcast
1:35 AM 57.2 °F 57.2 °F 100% 29.84 in 9.0 mi North 18.4 mph 24.2 mph 0.01 in   Overcast
1:55 AM 57.2 °F 57.2 °F 100% 29.86 in 5.0 mi North 11.5 mph 17.3 mph 0.03 in   Overcast
2:15 AM 57.2 °F 57.2 °F 100% 29.85 in 3.0 mi North 16.1 mph 21.9 mph 0.05 in   Overcast
2:35 AM 55.4 °F 55.4 °F 100% 29.85 in 4.0 mi NNW 15.0 mph - 0.11 in   Overcast
2:55 AM 55.4 °F 55.4 °F 100% 29.87 in 2.5 mi NNW 15.0 mph 19.6 mph 0.20 in   Overcast
3:15 AM 55.4 °F 55.4 °F 100% 29.85 in 3.0 mi NNW 13.8 mph - 0.03 in   Unknown
3:35 AM 55.4 °F 55.4 °F 100% 29.85 in 7.0 mi NNW 11.5 mph - 0.05 in   Unknown
3:55 AM 55.4 °F 55.4 °F 100% 29.85 in 6.0 mi NW 10.4 mph - 0.06 in   Overcast
4:15 AM 55.4 °F 55.4 °F 100% 29.84 in 5.0 mi NNW 12.7 mph - N/A   Overcast
4:35 AM 55.4 °F 55.4 °F 100% 29.83 in 6.0 mi NNW 11.5 mph 18.4 mph 0.01 in   Overcast
4:55 AM 55.4 °F 55.4 °F 100% 29.84 in 4.0 mi NW 10.4 mph - 0.04 in   Overcast
5:15 AM 55.4 °F 55.4 °F 100% 29.85 in 5.0 mi NW 9.2 mph - 0.02 in   Overcast
5:35 AM 55.4 °F 55.4 °F 100% 29.85 in 5.0 mi West 5.8 mph - 0.04 in   Overcast
5:55 AM 55.4 °F 55.4 °F 100% 29.87 in 9.0 mi WNW 3.5 mph - 0.06 in   Overcast
6:15 AM 55.4 °F 55.4 °F 100% 29.87 in 10.0 mi NW 3.5 mph - N/A   Overcast
6:35 AM 55.4 °F 55.4 °F 100% 29.88 in 8.0 mi Calm Calm - 0.01 in   Overcast
6:55 AM 55.4 °F 55.4 °F 100% 29.87 in 7.0 mi NW 3.5 mph - 0.02 in   Overcast
7:15 AM 53.6 °F 53.6 °F 100% 29.88 in 9.0 mi SW 3.5 mph - 0.01 in   Mostly Cloudy
7:35 AM 53.6 °F 53.6 °F 100% 29.89 in 4.0 mi SW 4.6 mph - 0.03 in   Overcast
7:55 AM 53.6 °F 53.6 °F 100% 29.89 in 5.0 mi SW 5.8 mph - 0.05 in   Overcast
8:15 AM 53.6 °F 53.6 °F 100% 29.89 in 5.0 mi WSW 3.5 mph - 0.02 in   Mostly Cloudy
8:35 AM 53.6 °F 53.6 °F 100% 29.89 in 5.0 mi WSW 4.6 mph - 0.04 in   Scattered Clouds
8:55 AM 53.6 °F 53.6 °F 100% 29.89 in 5.0 mi SSW 3.5 mph - 0.05 in   Partly Cloudy
9:15 AM 55.4 °F 55.4 °F 100% 29.92 in 3.0 mi SSW 6.9 mph - 0.02 in   Mostly Cloudy
9:35 AM 53.6 °F 53.6 °F 100% 29.91 in 3.0 mi WSW 4.6 mph - 0.06 in   Mostly Cloudy
9:55 AM 53.6 °F 53.6 °F 100% 29.93 in 5.0 mi SW 8.1 mph - 0.08 in   Scattered Clouds
10:15 AM 53.6 °F 53.6 °F 100% 29.92 in 3.0 mi Calm Calm - 0.01 in   Scattered Clouds
10:35 AM 53.6 °F 53.6 °F 100% 29.93 in 5.0 mi Calm Calm - 0.03 in   Mostly Cloudy
10:55 AM 53.6 °F 53.6 °F 100% 29.94 in 2.5 mi South 5.8 mph - 0.06 in   Mostly Cloudy
11:15 AM 53.6 °F 53.6 °F 100% 29.94 in 3.0 mi South 8.1 mph - 0.01 in   Scattered Clouds
11:35 AM 53.6 °F 53.6 °F 100% 29.94 in 5.0 mi SSE 3.5 mph - 0.03 in   Partly Cloudy
11:55 AM 53.6 °F 53.6 °F 100% 29.93 in 6.0 mi ESE 4.6 mph - 0.05 in   Mostly Cloudy
12:15 PM 53.6 °F 53.6 °F 100% 29.92 in 5.0 mi SE 6.9 mph - 0.02 in   Mostly Cloudy
12:35 PM 55.4 °F 55.4 °F 100% 29.93 in 5.0 mi SE 8.1 mph - 0.04 in   Mostly Cloudy
12:55 PM 55.4 °F 55.4 °F 100% 29.93 in 3.0 mi SE 8.1 mph - 0.05 in   Mostly Cloudy
1:15 PM 53.6 °F 53.6 °F 100% 29.92 in 4.0 mi ESE 6.9 mph - 0.02 in   Scattered Clouds
1:35 PM 55.4 °F 55.4 °F 100% 29.92 in 5.0 mi East 8.1 mph - 0.03 in   Partly Cloudy
1:55 PM 55.4 °F 55.4 °F 100% 29.92 in 7.0 mi ESE 8.1 mph - 0.04 in   Partly Cloudy
2:15 PM 55.4 °F 55.4 °F 100% 29.93 in 4.0 mi ESE 6.9 mph - 0.02 in   Scattered Clouds
2:35 PM 55.4 °F 55.4 °F 100% 29.93 in 5.0 mi ESE 11.5 mph - 0.04 in   Mostly Cloudy
2:55 PM 55.4 °F 55.4 °F 100% 29.94 in 3.0 mi ESE 10.4 mph - 0.07 in   Mostly Cloudy
3:15 PM 53.6 °F 53.6 °F 100% 29.93 in 3.0 mi East 10.4 mph - 0.03 in   Mostly Cloudy
3:35 PM 53.6 °F 53.6 °F 100% 29.92 in 5.0 mi East 11.5 mph - 0.05 in   Scattered Clouds
3:55 PM 53.6 °F 53.6 °F 100% 29.93 in 3.0 mi ESE 9.2 mph - 0.08 in   Scattered Clouds
4:15 PM 53.6 °F 53.6 °F 100% 29.92 in 4.0 mi ESE 8.1 mph - 0.01 in   Mostly Cloudy
4:35 PM 53.6 °F 53.6 °F 100% 29.92 in 5.0 mi ESE 10.4 mph - 0.03 in   Mostly Cloudy
4:55 PM 53.6 °F 53.6 °F 100% 29.95 in 3.0 mi SSE 10.4 mph - 0.06 in   Mostly Cloudy
5:15 PM 53.6 °F 53.6 °F 100% 29.94 in 3.0 mi SE 9.2 mph - 0.02 in   Overcast
5:35 PM 53.6 °F 53.6 °F 100% 29.94 in 5.0 mi SSE 9.2 mph - 0.06 in   Overcast
5:55 PM 53.6 °F 53.6 °F 100% 29.95 in 5.0 mi SE 8.1 mph - 0.10 in   Unknown
6:15 PM 53.6 °F 53.6 °F 100% 29.96 in 5.0 mi SE 8.1 mph - 0.01 in   Unknown
6:35 PM 53.6 °F 53.6 °F 100% 29.97 in 7.0 mi SE 8.1 mph - 0.04 in   Unknown
6:55 PM 53.6 °F 53.6 °F 100% 29.97 in 5.0 mi SE 6.9 mph - 0.07 in   Unknown
7:15 PM 53.6 °F 53.6 °F 100% 29.96 in 5.0 mi East 4.6 mph - 0.02 in   Unknown
7:35 PM 51.8 °F 51.8 °F 100% 29.97 in 6.0 mi ESE 5.8 mph - 0.05 in   Unknown
7:55 PM 51.8 °F 51.8 °F 100% 29.97 in 7.0 mi East 5.8 mph - 0.07 in   Unknown
8:15 PM 51.8 °F 51.8 °F 100% 29.96 in 8.0 mi East 6.9 mph - 0.01 in   Unknown
8:35 PM 51.8 °F 51.8 °F 100% 29.97 in 7.0 mi ESE 5.8 mph - 0.03 in   Overcast
8:55 PM 51.8 °F 51.8 °F 100% 29.98 in 8.0 mi East 3.5 mph - 0.05 in   Overcast
9:15 PM 51.8 °F 51.8 °F 100% 29.98 in 7.0 mi East 5.8 mph - 0.02 in   Overcast
9:35 PM 51.8 °F 51.8 °F 100% 29.98 in 7.0 mi East 8.1 mph - 0.04 in   Overcast
9:55 PM 51.8 °F 51.8 °F 100% 29.95 in 10.0 mi East 15.0 mph - 0.05 in   Overcast
10:15 PM 51.8 °F 51.8 °F 100% 29.97 in 10.0 mi ESE 10.4 mph - N/A   Overcast
10:35 PM 51.8 °F 51.8 °F 100% 29.99 in 10.0 mi SE 6.9 mph - N/A   Overcast
10:55 PM 51.8 °F 51.8 °F 100% 29.96 in 8.0 mi East 9.2 mph - 0.01 in   Overcast
11:15 PM 51.8 °F 51.8 °F 100% 29.95 in 10.0 mi East 9.2 mph - N/A   Overcast
11:35 PM 51.8 °F 51.8 °F 100% 29.95 in 10.0 mi East 13.8 mph - N/A   Overcast
11:55 PM 51.8 °F 51.8 °F 100% 29.93 in 10.0 mi East 21.9 mph 28.8 mph N/A   Overcast